Date,TemperatureHighF,TemperatureAvgF,TemperatureLowF,DewpointHighF,DewpointAvgF,DewpointLowF,HumidityHigh,HumidityAvg,HumidityLow,PressureMaxIn,PressureMinIn,WindSpeedMaxMPH,WindSpeedAvgMPH,GustSpeedMaxMPH,PrecipitationSumIn
2013-2-1,11.1,4.6,-3.0,9.0,-1.1,-7.0,90,77,67,30.41,30.22,11,4,17,0.00
2013-2-2,20.4,12.7,4.3,19.0,8.8,0.0,94,84,72,30.23,30.08,7,2,9,0.00
2013-2-3,20.5,14.7,6.3,16.0,9.5,1.0,91,80,68,30.12,30.01,14,2,17,0.00
2013-2-4,26.3,19.1,8.3,23.0,16.3,4.0,93,89,79,30.09,29.93,5,1,9,0.00
2013-2-5,28.3,20.7,6.2,26.0,16.9,2.0,94,85,73,30.15,29.85,8,2,17,0.00
2013-2-6,35.5,27.5,11.9,30.0,21.7,10.0,94,79,63,30.29,30.15,6,2,11,0.09
2013-2-7,33.3,32.3,29.3,32.0,31.1,28.0,98,94,84,30.15,29.91,5,1,8,0.22
2013-2-8,28.5,23.6,20.7,28.0,21.9,19.0,96,93,88,30.45,30.00,0,0,0,0.00
2013-2-9,33.2,25.0,16.4,28.0,22.4,15.0,96,90,79,30.45,30.13,0,0,0,0.01
2013-2-10,46.8,37.8,27.7,45.0,35.7,26.0,97,92,74,30.13,29.51,13,4,25,0.06
2013-2-11,42.6,31.8,26.5,35.0,25.7,21.0,88,78,74,30.05,29.51,23,8,33,0.00
2013-2-12,26.4,23.9,22.0,21.0,19.7,18.0,93,84,78,30.14,29.95,9,2,17,0.00
2013-2-13,42.4,31.9,22.3,33.0,27.5,21.0,95,84,63,29.95,29.76,6,2,11,0.00
2013-2-14,37.3,35.0,30.5,33.0,28.6,22.0,89,78,64,30.00,29.65,10,4,24,0.00
2013-2-15,30.7,24.2,17.1,25.0,14.3,8.0,87,67,49,30.22,30.01,9,3,13,0.00
2013-2-16,17.2,12.6,6.3,10.0,4.5,1.0,81,70,56,30.26,30.18,9,2,14,0.00
2013-2-17,29.4,17.6,2.7,15.0,5.0,-1.0,90,61,34,30.28,30.06,6,1,12,0.00
2013-2-18,49.7,38.7,26.7,45.0,31.4,15.0,95,75,61,30.05,29.43,14,6,23,0.31
2013-2-19,26.5,13.5,9.2,24.0,8.3,1.0,89,80,68,30.24,29.57,18,6,29,0.00
2013-2-20,20.9,12.8,5.5,12.0,6.1,0.0,89,75,66,30.44,30.25,8,2,14,0.00
2013-2-21,27.3,22.7,11.3,24.0,19.3,9.0,93,87,83,30.45,30.07,10,2,19,0.00
2013-2-22,32.1,27.1,23.8,30.0,25.4,22.0,96,93,88,30.05,29.84,10,3,15,0.00
2013-2-23,29.6,25.0,20.3,24.0,19.8,16.0,89,80,64,30.00,29.92,13,3,19,0.00
2013-2-24,37.9,26.0,13.9,24.0,19.0,12.0,92,76,55,30.19,30.00,4,1,8,0.08
2013-2-25,42.9,31.2,19.4,30.0,24.3,18.0,94,77,50,30.22,30.03,5,1,6,0.00
2013-2-26,35.4,32.7,30.6,31.0,29.5,27.0,98,88,74,30.01,29.58,11,4,17,0.00
2013-2-27,33.3,31.7,30.5,33.0,31.1,30.0,98,97,96,29.75,29.56,6,2,8,0.03
2013-2-28,34.2,30.9,25.5,31.0,28.2,21.0,96,89,77,30.12,29.75,9,3,12,0.04